TimeEST,TemperatureF,Dew PointF,Humidity,Sea Level PressureIn,VisibilityMPH,Wind Direction,Wind SpeedMPH,Gust SpeedMPH,PrecipitationIn,Events,Conditions,WindDirDegrees,DateUTC
12:15 AM,62.6,62.6,100,30.06,10.0,Calm,Calm,-,N/A,,Overcast,0,2012-12-09 05:15:00
12:35 AM,64.4,62.6,94,30.06,10.0,Calm,Calm,-,N/A,,Overcast,0,2012-12-09 05:35:00
12:55 AM,64.4,62.6,94,30.05,10.0,Calm,Calm,-,N/A,,Overcast,0,2012-12-09 05:55:00
1:15 AM,64.4,64.4,100,30.04,10.0,Calm,Calm,-,N/A,,Overcast,0,2012-12-09 06:15:00
1:35 AM,64.4,64.4,100,30.04,10.0,Calm,Calm,-,N/A,,Overcast,0,2012-12-09 06:35:00
1:55 AM,64.4,64.4,100,30.04,10.0,Calm,Calm,-,N/A,,Mostly Cloudy,0,2012-12-09 06:55:00
2:15 AM,64.4,64.4,100,30.04,7.0,Calm,Calm,-,N/A,,Mostly Cloudy,0,2012-12-09 07:15:00
2:35 AM,64.4,64.4,100,30.04,10.0,Calm,Calm,-,N/A,,Overcast,0,2012-12-09 07:35:00
2:55 AM,62.6,62.6,100,30.03,10.0,East,4.6,-,N/A,,Overcast,80,2012-12-09 07:55:00
3:15 AM,64.4,64.4,100,30.03,7.0,Calm,Calm,-,N/A,,Mostly Cloudy,0,2012-12-09 08:15:00
3:35 AM,62.6,62.6,100,30.02,0.5,Calm,Calm,-,N/A,Fog,Fog,0,2012-12-09 08:35:00
3:55 AM,62.6,62.6,100,30.03,1.5,Calm,Calm,-,N/A,,Mostly Cloudy,0,2012-12-09 08:55:00
4:15 AM,62.6,62.6,100,30.03,0.8,Calm,Calm,-,N/A,,Overcast,0,2012-12-09 09:15:00
4:35 AM,62.6,62.6,100,30.03,1.0,Calm,Calm,-,N/A,,Overcast,0,2012-12-09 09:35:00
4:55 AM,62.6,62.6,100,30.03,0.2,Calm,Calm,-,N/A,Fog,Fog,0,2012-12-09 09:55:00
5:15 AM,64.4,64.4,100,30.04,0.2,Calm,Calm,-,N/A,Fog,Fog,0,2012-12-09 10:15:00
5:35 AM,64.4,64.4,100,30.04,0.2,Calm,Calm,-,N/A,Fog,Fog,0,2012-12-09 10:35:00
5:55 AM,64.4,64.4,100,30.05,0.2,Calm,Calm,-,N/A,Fog,Fog,0,2012-12-09 10:55:00
6:15 AM,62.6,62.6,100,30.05,0.2,Calm,Calm,-,N/A,Fog,Fog,0,2012-12-09 11:15:00
6:35 AM,62.6,62.6,100,30.06,0.2,Calm,Calm,-,N/A,Fog,Fog,0,2012-12-09 11:35:00
6:55 AM,62.6,62.6,100,30.06,0.2,Calm,Calm,-,N/A,Fog,Fog,0,2012-12-09 11:55:00
7:15 AM,62.6,62.6,100,30.06,0.2,Calm,Calm,-,N/A,Fog,Fog,0,2012-12-09 12:15:00
7:35 AM,64.4,64.4,100,30.07,0.2,Calm,Calm,-,N/A,Fog,Fog,0,2012-12-09 12:35:00
7:55 AM,64.4,64.4,100,30.07,0.2,Calm,Calm,-,N/A,Fog,Fog,0,2012-12-09 12:55:00
8:15 AM,64.4,64.4,100,30.08,0.2,Calm,Calm,-,N/A,Fog,Fog,0,2012-12-09 13:15:00
8:35 AM,64.4,64.4,100,30.09,0.2,Calm,Calm,-,N/A,Fog,Fog,0,2012-12-09 13:35:00
8:55 AM,64.4,64.4,100,30.09,0.2,Calm,Calm,-,N/A,Fog,Fog,0,2012-12-09 13:55:00
9:15 AM,64.4,64.4,100,30.10,0.2,Calm,Calm,-,N/A,Fog,Fog,0,2012-12-09 14:15:00
9:35 AM,64.4,64.4,100,30.11,0.2,Calm,Calm,-,N/A,Fog,Fog,0,2012-12-09 14:35:00
9:55 AM,66.2,66.2,100,30.11,1.8,Calm,Calm,-,N/A,,Overcast,0,2012-12-09 14:55:00
10:15 AM,66.2,66.2,100,30.11,7.0,Calm,Calm,-,N/A,,Overcast,0,2012-12-09 15:15:00
10:35 AM,66.2,66.2,100,30.11,10.0,Calm,Calm,-,N/A,,Overcast,0,2012-12-09 15:35:00
10:55 AM,68.0,68.0,100,30.11,10.0,Calm,Calm,-,N/A,,Overcast,0,2012-12-09 15:55:00
11:35 AM,69.8,68.0,94,30.10,10.0,Calm,Calm,-,N/A,,Overcast,0,2012-12-09 16:35:00
11:55 AM,69.8,68.0,94,30.09,10.0,Calm,Calm,-,N/A,,Overcast,0,2012-12-09 16:55:00
12:15 PM,69.8,68.0,94,30.08,10.0,Calm,Calm,-,N/A,,Overcast,0,2012-12-09 17:15:00
12:35 PM,69.8,68.0,94,30.07,10.0,West,5.8,-,N/A,,Overcast,270,2012-12-09 17:35:00
12:55 PM,69.8,68.0,94,30.06,10.0,WNW,3.5,-,N/A,,Overcast,290,2012-12-09 17:55:00
1:15 PM,69.8,68.0,94,30.06,10.0,WNW,3.5,-,N/A,,Overcast,300,2012-12-09 18:15:00
1:35 PM,71.6,66.2,83,30.05,10.0,Calm,Calm,-,N/A,,Overcast,0,2012-12-09 18:35:00
1:55 PM,71.6,66.2,83,30.04,10.0,Calm,Calm,-,N/A,,Overcast,0,2012-12-09 18:55:00
2:15 PM,73.4,66.2,78,30.04,10.0,Calm,Calm,-,N/A,,Overcast,0,2012-12-09 19:15:00
2:35 PM,73.4,66.2,78,30.04,10.0,West,4.6,-,N/A,,Mostly Cloudy,280,2012-12-09 19:35:00
2:55 PM,73.4,66.2,78,30.03,10.0,Calm,Calm,-,N/A,,Scattered Clouds,0,2012-12-09 19:55:00
3:15 PM,75.2,66.2,73,30.03,10.0,West,5.8,-,N/A,,Clear,280,2012-12-09 20:15:00
3:35 PM,73.4,66.2,78,30.03,10.0,Calm,Calm,-,N/A,,Clear,0,2012-12-09 20:35:00
3:55 PM,73.4,66.2,78,30.03,10.0,SW,3.5,-,N/A,,Clear,220,2012-12-09 20:55:00
4:15 PM,73.4,66.2,78,30.03,10.0,West,4.6,-,N/A,,Clear,260,2012-12-09 21:15:00
4:35 PM,71.6,64.4,78,30.03,10.0,West,5.8,-,N/A,,Clear,260,2012-12-09 21:35:00
4:55 PM,71.6,66.2,83,30.03,10.0,West,5.8,-,N/A,,Clear,260,2012-12-09 21:55:00
5:15 PM,69.8,66.2,88,30.04,10.0,West,3.5,-,N/A,,Clear,260,2012-12-09 22:15:00
5:35 PM,68.0,64.4,88,30.04,10.0,West,3.5,-,N/A,,Clear,280,2012-12-09 22:35:00
5:55 PM,66.2,64.4,94,30.04,7.0,West,3.5,-,N/A,,Clear,280,2012-12-09 22:55:00
6:15 PM,64.4,64.4,100,30.05,7.0,West,3.5,-,N/A,,Clear,270,2012-12-09 23:15:00
6:35 PM,64.4,64.4,100,30.06,7.0,West,4.6,-,N/A,,Mostly Cloudy,270,2012-12-09 23:35:00
6:55 PM,64.4,64.4,100,30.06,4.0,West,5.8,-,N/A,,Overcast,270,2012-12-09 23:55:00
7:15 PM,64.4,64.4,100,30.06,1.2,West,5.8,-,N/A,,Overcast,280,2012-12-10 00:15:00
7:35 PM,64.4,64.4,100,30.06,0.5,West,3.5,-,N/A,Fog,Fog,270,2012-12-10 00:35:00
7:55 PM,64.4,64.4,100,30.06,0.2,West,4.6,-,N/A,Fog,Fog,280,2012-12-10 00:55:00
8:15 PM,64.4,64.4,100,30.06,0.2,Calm,Calm,-,N/A,Fog,Fog,0,2012-12-10 01:15:00
8:35 PM,64.4,64.4,100,30.06,0.2,West,3.5,-,N/A,Fog,Fog,260,2012-12-10 01:35:00
8:55 PM,64.4,64.4,100,30.06,0.2,Calm,Calm,-,N/A,Fog,Fog,0,2012-12-10 01:55:00
9:15 PM,62.6,62.6,100,30.06,0.2,Calm,Calm,-,N/A,Fog,Fog,0,2012-12-10 02:15:00
9:35 PM,62.6,62.6,100,30.05,0.2,Calm,Calm,-,N/A,Fog,Fog,0,2012-12-10 02:35:00
9:55 PM,62.6,62.6,100,30.05,0.2,Calm,Calm,-,N/A,Fog,Fog,0,2012-12-10 02:55:00
10:15 PM,62.6,62.6,100,30.05,0.2,Calm,Calm,-,N/A,Fog,Fog,0,2012-12-10 03:15:00
10:35 PM,62.6,62.6,100,30.05,0.2,Calm,Calm,-,N/A,Fog,Fog,0,2012-12-10 03:35:00
10:55 PM,62.6,62.6,100,30.06,0.2,Calm,Calm,-,N/A,Fog,Fog,0,2012-12-10 03:55:00
11:15 PM,62.6,62.6,100,30.05,0.2,Calm,Calm,-,N/A,Fog,Fog,0,2012-12-10 04:15:00
11:35 PM,62.6,62.6,100,30.05,0.2,Calm,Calm,-,N/A,Fog,Fog,0,2012-12-10 04:35:00
11:55 PM,60.8,60.8,100,30.04,0.2,Calm,Calm,-,N/A,Fog,Fog,0,2012-12-10 04:55:00